Regional Weather Roundup
Issued by NWS Spokane, WA

Home | Current Version | Previous Version | Text Only | Print | Product List | Glossary On
Versions: 1 2 3 4 5 6 7 8 9 10 11 12 13 14 15 16 17 18 19 20 21 22 23 24 25 26 27 28 29 30 31 32 33 34 35 36 37 38 39 40 41 42 43 44 45 46 47 48 49 50
000
NZUS01 KOTX 301110
RWROTX
EASTERN WASHINGTON/NORTHERN IDAHO ROUNDUP
NATIONAL WEATHER SERVICE, SPOKANE WA
400 AM PDT MON MAY 30 2016

Note: "fair" indicated few or no clouds below 12,000 feet with no
significant weather and/or obstructions to visibility.

...NORTHEAST WASHINGTON AND NORTHERN IDAHO PANHANDLE...

CITY           SKY/WX    TMP DP  RH WIND       PRES   REMARKS
SPOKANE INTL   CLEAR     43  35  73 W6        30.14R
SPOKANE DOWNTO CLEAR     46  38  73 SW3       30.15R
COEUR D ALENE  CLEAR     43  36  75 CALM      30.12R
DEER PARK      CLEAR     34  32  92 NE3       30.15R
SANDPOINT      CLEAR     37  37 100 CALM      30.14R
BONNERS FERRY  CLOUDY    39  39 100 CALM      30.14R

...SOUTHEAST WASHINGTON AND SOUTHERN IDAHO PANHANDLE...

CITY           SKY/WX    TMP DP  RH WIND       PRES   REMARKS
WALLA WALLA    PTCLDY    53  39  59 S5        30.18R
PULLMAN/MOSCOW CLEAR     47  37  68 W6        30.17R
LEWISTON       PTCLDY    57  37  47 NW10      30.13R
LOWELL           N/A     53  48  83 CALM      30.14R

...COLUMBIA BASIN...

CITY           SKY/WX    TMP DP  RH WIND       PRES   REMARKS
EPHRATA        CLEAR     51  32  48 NE8       30.18R
MOSES LAKE     CLEAR     46  32  58 CALM      30.19R
TRI CITIES     CLEAR     47  39  74 CALM      30.19R
HERMISTON      MOCLDY    47  41  80 S3        30.19R
PENDLETON      CLOUDY    51  36  56 SW3       30.19R

...EAST SLOPES CASCADES...

CITY           SKY/WX    TMP DP  RH WIND       PRES   REMARKS
THE DALLES     CLEAR     54  43  66 NW7       30.20R
YAKIMA           N/A     44  35  70 W6        30.21R
ELLENSBURG     CLEAR     46  31  55 NE5       30.21R
STAMPEDE PASS  FOG       37  35  92 SW5       30.23R VSB 1/4
WENATCHEE      CLEAR     50  36  58 N12       30.21R
OMAK           CLEAR     42  32  67 CALM      30.21R

...SOUTHERN BRITISH COLUMBIA...

CITY           SKY/WX    TMP DP  RH WIND       PRES   REMARKS
PENTICTON      CLEAR     39  36  87 VRB2      30.22R
CRANBROOK      PTCLDY    43  39  87 W3        30.10R

...WESTERN MONTANA...

CITY           SKY/WX    TMP DP  RH WIND       PRES   REMARKS
MISSOULA       CLOUDY    51  44  77 MISG      30.08R

...NEIGHBORING CITIES...

CITY           SKY/WX    TMP DP  RH WIND       PRES   REMARKS
SEATTLE        CLEAR     50  42  74 N9        30.28S
CALGARY        LGT RAIN  43  39  87 NW14      30.05R



USA.gov is the U.S. government's official web portal to all federal, state and local government web resources and services.